Tracking 30995 objects as of 7-Jul-2025
HD Live streaming from Space Station
objects crossing your sky now

SL-8 R/B

Track SL-8 R/B now!
10-day predictions


NORAD ID: 8073
Int'l Code: 1975-074B
Perigee: 968.7 km
Apogee: 1,000.0 km
Inclination: 82.9 °
Period: 104.6 minutes
Semi major axis: 7355 km
RCS: 4.716 m2 (large)
Launch date: August 14, 1975
Source: Commonwealth of Independent States (former USSR) (CIS)
Launch site: PLESETSK MISSILE AND SPACE COMPLEX (PKMTR)

Note: This is a ROCKET BODY
Your satellite tracking list
Your tracking list is empty




NASA's NSSDC Master Catalog

Two Line Element Set (TLE):
1 08073U 75074B   25187.65188179  .00000048  00000-0  33210-4 0  9994
2 08073  82.9010 291.4558 0021262 187.1624 286.6518 13.76247475504490
Source of the keplerian elements: AFSPC